STARLINK-1812, 47126

Orbit data source: Space-Track

STARLINK-1812, 47126 is a payload satellite owned by SpaceX/Seattle (US) in LEO that was launched on Wed, 25 Nov 2020 UTC via an FALCON 9 launch vehicle from the Air Force Eastern Test Range (AFETR). Payload-class satellites include a variety of spacecraft equipped with specific instruments for various scientific and technological missions. These include communications satellites like Starlink; space stations such as the ISS; scientific satellites like the Hubble; Earth observation satellites from companies like Planet Labs, Umbra, and HawkEye 360; GPS; miniature CubeSats for education and research; and military/defense satellites.

Loading next visibility...
Identifier
47126, 2020-088E
Orbit
LEO
Country
Flag of USUS
Related business
Manufacturer
SpaceX/Seattle
Mission
Partially operational Commercial Communications
Bus & Motor
STARLINK, Unknown motor
Mass
260 kg wet, ~248 kg dry
Launch date (UTC)
2020-11-25 (6 years ago)
Launch vehicle
FALCON 9
Launch site
Air Force Eastern Test Range (AFETR)
Object type
Payload
Rocket body
Debris
Shape & HBR
Box + 1 Pan, 10.1 m
Radar Cross Section
13.562 m², Large (>1 m²)

Expand to show TLE details & history
Last TLE update: 2 days ago

TLE from 2 days ago
0 STARLINK-1812
1 47126U 20088E   26171.33200178  .00022516  00000-0  10062-2 0  9996
2 47126  53.0798 190.6050 0002793  27.1729 332.9412 15.21267692307469
Epoch: 2026-06-20T07:58Z
TLE epoch observation values (Epoch: 2026-06-20T07:58:04.953Z)
Latitude
-0.00008°
Longitude
162.53615°
Altitude
501.192 km
Speed
7.616 km/s
True Right ascension
12h 42m 25s
True Declination
0° 00' 00"
Sunlit
Object was in daylight at epoch
Visualization orbit readout
Latitude
Unknown
Longitude
Unknown
Altitude
Unknown
Speed
Unknown
Apparent Right ascension
Unknown
Apparent Declination
Unknown
Sunlit
N/A
Visualization observer readout
Local Sidereal Time
00:31:35
Azimuth
Unknown
Elevation
Unknown
Doppler factor
Unknown
Orbital elements
Apogee altitude
504.206 km
Perigee altitude
500.362 km
Semi-major axis
6,880.421 km
Eccentricity
0.00028
Inclination
53.0798°
RAAN
190.605°
Arg. of periapsis
27.1729°
True anomaly
332.92664°
Mean anomaly
332.9412°
Eccentric anomaly
332.93392°
Mean motion
3.80295 °/min
Orbital period
94.66 mins
BSTAR
0.0010062
Loading maneuver chart data...
Computing Atmospheric mass density...

Documentation

Showing up to 5 results
|